Alpena, MI

10:15 PM EDT on August 24, 2019 (GMT -0400)
Alpena County Regional

Weather History for KAPN - July, 2019

Change the Weather History Date:

Monday, July 22, 2019

  Actual Average Record
Temperature  
Mean Temperature 68 °F 68 °F  
Max Temperature 79 °F 80 °F 97 °F (1918)
Min Temperature 57 °F 56 °F 42 °F (1966)
Degree Days  
Heating Degree Days 0 1  
Month to date heating degree days 8 32  
Since 1 June heating degree days 187 175  
Since 1 July heating degree days 8 32  
Cooling Degree Days 3 4  
Month to date cooling degree days 124 85  
Year to date cooling degree days 168 154  
Since 1 June cooling degree days 165 141  
Growing Degree Days 18 (Base 50)    
Moisture  
Dew Point 48 °F    
Average Humidity 55    
Maximum Humidity 80    
Minimum Humidity 29    
Precipitation  
Precipitation 0.00 in 0.10 in 1.73 in (1971)
Month to date precipitation 1.11 2.19  
Year to date precipitation 19.07 14.71  
Sea Level Pressure  
Sea Level Pressure 29.99 in    
Wind  
Wind Speed 9 mph (NW)    
Max Wind Speed 18 mph    
Max Gust Speed 27 mph    
Visibility 10 miles    
Events      
T = Trace of Precipitation, MM = Missing Value Source: NWS Daily Summary

Daily Weather History Graph

Daily Weather History Graph

Search for Another Location

Airport or City:

Astronomy

Jul. 22, 2019 Rise Set
Actual Time 6:08 AM EDT 9:12 PM EDT
Civil Twilight 5:33 AM EDT 9:47 PM EDT
Nautical Twilight 4:47 AM EDT 10:32 PM EDT
Astronomical Twilight 3:53 AM EDT 11:26 PM EDT
Moon No Moon Rise 11:36 AM EDT (7/22)
Length of Visible Light 16h 14m
Length of Day
15h 04m
Waning Gibbous, 72% of the Moon is Illuminated
Jul 22
Waning Gibbous
Jul 24
Last Quarter
Jul 31
New
Aug 7
First Quarter
Aug 15
Full

Hourly Weather History & Observations

Time (EDT) Temp. Dew Point Humidity Pressure Visibility Wind Dir Wind Speed Gust Speed Precip Events Conditions
12:54 AM 61.0 °F 50.0 °F 67% 29.99 in 10.0 mi NW 5.8 mph - N/A   Clear
1:54 AM 59.0 °F 51.1 °F 75% 29.98 in 10.0 mi West 4.6 mph - N/A   Clear
2:54 AM 57.9 °F 50.0 °F 75% 29.97 in 10.0 mi Calm Calm - N/A   Clear
3:54 AM 57.0 °F 50.0 °F 77% 29.98 in 10.0 mi West 3.5 mph - N/A   Clear
4:54 AM 57.0 °F 50.0 °F 77% 29.97 in 10.0 mi West 4.6 mph - N/A   Clear
5:54 AM 57.0 °F 50.0 °F 77% 29.98 in 10.0 mi WNW 4.6 mph - N/A   Mostly Cloudy
6:54 AM 57.0 °F 51.1 °F 81% 29.99 in 10.0 mi NW 3.5 mph - N/A   Clear
7:54 AM 60.1 °F 54.0 °F 80% 29.98 in 10.0 mi NNW 5.8 mph - N/A   Scattered Clouds
8:54 AM 62.1 °F 55.0 °F 78% 30.02 in 10.0 mi NNW 5.8 mph - N/A   Mostly Cloudy
9:54 AM 66.9 °F 54.0 °F 63% 30.01 in 10.0 mi North 12.7 mph - N/A   Partly Cloudy
10:54 AM 72.0 °F 52.0 °F 49% 30.01 in 10.0 mi North 11.5 mph - N/A   Partly Cloudy
11:54 AM 73.0 °F 46.9 °F 39% 30.01 in 10.0 mi NNE 12.7 mph - N/A   Mostly Cloudy
12:54 PM 75.0 °F 42.1 °F 31% 30.01 in 10.0 mi North 16.1 mph - N/A   Partly Cloudy
1:54 PM 77.0 °F 42.1 °F 29% 30.01 in 10.0 mi NNW 15.0 mph 23.0 mph N/A   Clear
2:54 PM 77.0 °F 42.1 °F 29% 30.00 in 10.0 mi North 9.2 mph 21.9 mph N/A   Clear
3:54 PM 78.1 °F 44.1 °F 30% 29.99 in 10.0 mi NNW 16.1 mph 23.0 mph N/A   Clear
4:54 PM 79.0 °F 46.0 °F 31% 29.98 in 10.0 mi NNW 15.0 mph 21.9 mph N/A   Clear
5:54 PM 78.1 °F 45.0 °F 31% 29.97 in 10.0 mi NNW 15.0 mph 21.9 mph N/A   Clear
6:54 PM 77.0 °F 46.0 °F 33% 29.96 in 10.0 mi NNW 10.4 mph - N/A   Clear
7:54 PM 75.0 °F 48.9 °F 40% 29.97 in 10.0 mi NW 6.9 mph - N/A   Scattered Clouds
8:54 PM 71.1 °F 50.0 °F 47% 29.98 in 10.0 mi NNW 9.2 mph - N/A   Mostly Cloudy
9:54 PM 66.0 °F 46.0 °F 48% 30.00 in 10.0 mi NNW 11.5 mph - N/A   Clear
10:54 PM 63.0 °F 46.0 °F 54% 30.00 in 10.0 mi Variable 3.5 mph - N/A   Clear
11:54 PM 59.0 °F 46.9 °F 64% 30.00 in 10.0 mi West 3.5 mph - N/A   Clear